2022-085C

Last updated on Tue Jul 26 2022 00:02:04 GMT+0000 (Coordinated Universal Time)

1 53241U 22085C 22206.13650785 .03492561 76032-5 79593-3 0 9998 2 53241 41.4884 347.5556 0089143 177.4323 346.5973 16.18722533 110

Satellite not in orbit